TimeCDT,TemperatureF,Dew PointF,Humidity,Sea Level PressureIn,VisibilityMPH,Wind Direction,Wind SpeedMPH,Gust SpeedMPH,PrecipitationIn,Events,Conditions,WindDirDegrees,DateUTC
12:52 AM,66.0,55.9,70,30.06,10.0,SSE,4.6,-,N/A,,Scattered Clouds,150,2013-09-18 05:52:00
1:52 AM,64.0,55.9,75,30.06,10.0,Calm,Calm,-,N/A,,Scattered Clouds,0,2013-09-18 06:52:00
2:01 AM,64.4,55.4,73,30.07,10.0,Calm,Calm,-,N/A,,Mostly Cloudy,0,2013-09-18 07:01:00
2:52 AM,64.0,55.9,75,30.05,10.0,Calm,Calm,-,N/A,,Overcast,0,2013-09-18 07:52:00
3:40 AM,62.6,55.4,77,30.04,10.0,Calm,Calm,-,N/A,,Scattered Clouds,0,2013-09-18 08:40:00
3:52 AM,62.1,55.0,78,30.03,10.0,Calm,Calm,-,N/A,,Clear,0,2013-09-18 08:52:00
4:52 AM,61.0,55.9,83,30.02,10.0,East,4.6,-,N/A,,Mostly Cloudy,100,2013-09-18 09:52:00
5:52 AM,61.0,55.0,81,30.01,10.0,SE,4.6,-,N/A,,Scattered Clouds,130,2013-09-18 10:52:00
6:52 AM,61.0,55.0,81,30.01,10.0,ESE,4.6,-,N/A,,Scattered Clouds,120,2013-09-18 11:52:00
7:52 AM,64.0,57.0,78,30.01,10.0,SSE,9.2,-,N/A,,Mostly Cloudy,160,2013-09-18 12:52:00
8:52 AM,68.0,60.1,76,29.99,10.0,South,9.2,-,N/A,,Partly Cloudy,190,2013-09-18 13:52:00
9:52 AM,72.0,63.0,73,29.99,10.0,South,10.4,-,N/A,,Mostly Cloudy,190,2013-09-18 14:52:00
10:35 AM,71.6,64.4,78,30.00,4.0,SW,4.6,-,0.02,Rain-Thunderstorm,Rain,220,2013-09-18 15:35:00
10:52 AM,71.1,64.9,81,30.00,5.0,Calm,Calm,-,0.03,Rain-Thunderstorm,Light Rain,0,2013-09-18 15:52:00
11:52 AM,73.9,68.0,82,29.97,8.0,ESE,5.8,-,0.02,Thunderstorm,Thunderstorm,120,2013-09-18 16:52:00
12:12 PM,75.2,66.2,73,29.97,8.0,South,4.6,-,N/A,,Mostly Cloudy,170,2013-09-18 17:12:00
12:38 PM,78.8,68.0,69,29.97,9.0,Variable,4.6,-,N/A,Thunderstorm,Thunderstorm,0,2013-09-18 17:38:00
12:52 PM,75.0,68.0,79,29.96,7.0,ENE,10.4,-,N/A,,Mostly Cloudy,60,2013-09-18 17:52:00
1:52 PM,78.1,70.0,76,29.94,8.0,East,10.4,-,N/A,,Partly Cloudy,90,2013-09-18 18:52:00
2:52 PM,81.0,70.0,69,29.90,9.0,East,10.4,-,N/A,,Overcast,90,2013-09-18 19:52:00
3:52 PM,86.0,69.1,57,29.87,10.0,South,5.8,-,N/A,,Scattered Clouds,170,2013-09-18 20:52:00
4:52 PM,84.9,68.0,57,29.86,10.0,South,10.4,18.4,N/A,,Scattered Clouds,180,2013-09-18 21:52:00
5:52 PM,82.0,68.0,62,29.85,10.0,South,10.4,-,N/A,,Partly Cloudy,170,2013-09-18 22:52:00
6:52 PM,81.0,69.1,67,29.85,10.0,South,9.2,-,N/A,,Clear,170,2013-09-18 23:52:00
7:52 PM,79.0,69.1,72,29.86,10.0,South,10.4,-,N/A,,Clear,170,2013-09-19 00:52:00
8:52 PM,79.0,69.1,72,29.87,10.0,South,11.5,-,N/A,,Clear,170,2013-09-19 01:52:00
9:52 PM,77.0,68.0,74,29.88,10.0,South,8.1,-,N/A,,Clear,180,2013-09-19 02:52:00
10:52 PM,77.0,68.0,74,29.88,10.0,SSW,11.5,17.3,N/A,,Mostly Cloudy,200,2013-09-19 03:52:00
11:52 PM,75.9,68.0,76,29.89,10.0,South,9.2,-,N/A,,Scattered Clouds,190,2013-09-19 04:52:00